This is the latest recevied weather packets stored in our database for station/object KD8JAM. If no packets are shown the sender has not sent any weather packets the latest 10 day(s).
| Time | Temp. | Humidity | Pressure | Rain* | Wind** | Luminosity | Snow |
|---|---|---|---|---|---|---|---|
| 1778048090 | 1.11° C | 85% | 1011.1 hPa | 0 mm | - | 0 W/m² | - |
| 1778047788 | 1.11° C | 85% | 1011.1 hPa | 0 mm | - | 0 W/m² | - |
| 1778047486 | 1.11° C | 85% | 1011.1 hPa | 0 mm | - | 0 W/m² | - |
| 1778047182 | 1.11° C | 85% | 1011.2 hPa | 0 mm | - | 0 W/m² | - |
| 1778046880 | 1.11° C | 84% | 1011.2 hPa | 0 mm | - | 0 W/m² | - |
| 1778046576 | 1.11° C | 84% | 1011.1 hPa | 0 mm | - | 0 W/m² | - |
| 1778046273 | 1.11° C | 84% | 1011.2 hPa | 0 mm | - | 0 W/m² | - |
| 1778045969 | 1.11° C | 86% | 1011.3 hPa | 0 mm | - | 0 W/m² | - |
| 1778045667 | 1.11° C | 88% | 1011.2 hPa | 0 mm | - | 0 W/m² | - |
| 1778045366 | 1.11° C | 88% | 1011.2 hPa | 0 mm | - | 0 W/m² | - |
| 1778045064 | 1.11° C | 87% | 1011.1 hPa | 0 mm | - | 0 W/m² | - |
| 1778044761 | 1.11° C | 84% | 1011.3 hPa | 0 mm | - | 0 W/m² | - |
| 1778044458 | 1.11° C | 85% | 1011.3 hPa | 0 mm | - | 0 W/m² | - |
| 1778044155 | 1.11° C | 87% | 1011.3 hPa | 0 mm | - | 0 W/m² | - |
| 1778043852 | 1.11° C | 89% | 1011 hPa | 0 mm | - | 0 W/m² | - |
| 1778043549 | 1.11° C | 88% | 1011.1 hPa | 0 mm | - | 0 W/m² | - |
| 1778043246 | 1.11° C | 88% | 1011.1 hPa | 0 mm | - | 0 W/m² | - |
| 1778042943 | 1.11° C | 88% | 1011.1 hPa | 0 mm | - | 0 W/m² | - |
| 1778042641 | 1.11° C | 87% | 1011.3 hPa | 0 mm | - | 0 W/m² | - |
| 1778042338 | 1.11° C | 90% | 1011.3 hPa | 0 mm | - | 0 W/m² | - |
| 1778042035 | 1.11° C | 90% | 1010.9 hPa | 0 mm | - | 0 W/m² | - |
| 1778041733 | 1.11° C | 89% | 1011 hPa | 0 mm | - | 0 W/m² | - |
| 1778041432 | 1.11° C | 88% | 1011.1 hPa | 0 mm | - | 0 W/m² | - |
| 1778041130 | 1.11° C | 87% | 1011 hPa | 0 mm | - | 0 W/m² | - |
| 1778040827 | 1.11° C | 86% | 1011.1 hPa | 0 mm | - | 0 W/m² | - |
* Rain latest hour (hover to see other rain measurements)
** Current wind speed in m/s (hover to see current wind gust speed)